Location: Poughquag
(41.6090°N, 73.6820°W)
Time: 12:47:34
(UTC-04:00)

Tiros 1 despin weight - Pass Details

Date: 01 June 2020
Orbit: 593 x 642 km, 48.2° (Epoch: 07 July)

Event Time Altitude Azimuth Distance (km) Brightness Sun altitude
Rises 09:38:27 0° 209° (SSW) 2,923 ? 45.1°
Reaches altitude 10° 09:41:00 10° 199° (SSW) 2,013 ? 45.6°
Maximum altitude 09:45:01 29° 139° (SE) 1,145 ? 46.3°
Drops below altitude 10° 09:49:01 10° 79° (ENE) 1,999 ? 47.1°
Sets 09:51:32 0° 68° (ENE) 2,900 ? 47.5°
